This demonstration page uses our WeatherBlox Daily Observations layout. Learn more.

Left ArrowRight Arrow

41.86663, -103.66717

Hourly Observations for August 5, 2018

Temp ( °F °C ) Dew Point ( °F °C ) Humidity (%) Winds ( mph kmh ) Pressure ( in mb ) Visibility ( mi km ) Precip ( " mm )
12:53 am 00:53 Clear 65 18.3 59 15 81 81 ENE 6 9 29.81 1010 10 16 0.00 0.00
1:53 am 01:53 Clear 65 18.3 58 14.4 78 78 ESE 5 7 29.80 1009 10 16 0.00 0.00
2:53 am 02:53 Clear 64 17.8 59 15 84 84 NE 6 9 29.78 1009 10 16 0.00 0.00
3:53 am 03:53 Clear 64 17.8 59 15 84 84 N 7 11 29.80 1009 10 16 0.00 0.00
4:53 am 04:53 Clear 65 18.3 60 15.6 84 84 NNE 6 9 29.80 1009 10 16 0.00 0.00
5:53 am 05:53 Partly Cloudy 64 17.8 60 15.6 87 87 W 8 13 29.86 1011 10 16 0.00 0.00
6:53 am 06:53 Mostly Sunny 65 18.3 59 15 81 81 Calm 29.88 1012 10 16 0.00 0.00
7:53 am 07:53 Mostly Sunny 66 18.9 60 15.6 81 81 W 9 15 29.91 1013 10 16 0.00 0.00
8:53 am 08:53 Sunny 67 19.4 60 15.6 79 79 WNW 6 9 29.93 1014 10 16 0.00 0.00
9:53 am 09:53 Mostly Cloudy 67 19.4 60 15.6 79 79 WNW 8 13 29.98 1015 10 16 0.00 0.00
10:53 am 10:53 Mostly Sunny 73 22.8 61 16.1 66 66 NNW 8 13 29.93 1014 10 16 0.00 0.03
11:53 am 11:53 Sunny 78 25.6 60 15.6 54 54 E 8 13 29.89 1012 10 16 0.00 0.00
12:53 pm 12:53 Sunny 80 26.7 61 16.1 52 52 E 8 13 29.87 1012 10 16 0.00 0.00
1:50 pm 13:50 Mostly Cloudy with Nearby Thunderstorms 75 24 63 17 65 65 WNW 17 28 29.85 1011 8 13 0.00 0.00
1:51 pm 13:51 Mostly Cloudy with Nearby Thunderstorms 74 23.3 63 17.2 69 69 WNW 16 26 29.97 1015 7 11 0.00 0.03
1:58 pm 13:58 Cloudy with Nearby Thunderstorms 70 21 64 18 83 83 NW 17 28 29.88 1012 5 8 0.00 0.00
2:06 pm 14:06 Cloudy with Light Rain 69 20.6 65 18.3 87 87 NW 14 22 29.91 1013 8 13 0.00 0.03
2:53 pm 14:53 Sunny 71 21.7 66 18.9 84 84 ENE 10 17 29.91 1013 10 16 0.00 0.03
3:53 pm 15:53 Sunny 75 23.9 66 18.9 74 74 NE 14 22 29.91 1013 10 16 0.00 0.00
4:53 pm 16:53 Sunny 74 23.3 66 18.9 76 76 NE 6 9 29.92 1013 10 16 0.00 0.00
5:53 pm 17:53 Sunny 73 22.8 64 17.8 74 74 E 6 9 29.94 1014 10 16 0.00 0.00
6:53 pm 18:53 Mostly Cloudy with Light Rain 69 20.6 67 19.4 93 93 E 10 17 29.97 1015 10 16 0.01 0.25
7:53 pm 19:53 Sunny 67 19.4 66 18.9 97 97 ESE 6 9 29.99 1016 10 16 0.00 0.03
8:53 pm 20:53 Partly Cloudy 65 18.3 65 18.3 100 100 undefined N/A 30.02 1017 10 16 0.00 0.00
9:53 pm 21:53 Mostly Clear 65 18.3 65 18.3 100 100 E 7 11 30.00 1016 10 16 0.00 0.03
10:53 pm 22:53 Partly Cloudy 66 18.9 64 17.8 93 93 NNE 18 30 30.04 1017 10 16 0.00 0.00
11:53 pm 23:53 Clear 61 16.1 58 14.4 90 90 NNE 9 15 30.02 1017 10 16 0.00 0.00

Powered by AerisWeather